EW2817 Weather Reports


time (UTC)temp
C
wind
direction
speed
KPH
gust
KPH
rain 1hr
cm
rain 24hr
cm
rain mn
cm
humidity
%
barometer
mb
20260508044547 10 0 0.0 0.0 0.00 1.30 0.00 96 990.0
20260508043047 10 0 0.0 0.0 0.00 1.30 0.00 96 989.8
20260508041546 11 0 0.0 0.0 0.00 1.32 0.00 96 989.8
20260508033043 11 0 0.0 0.0 0.00 1.37 1.35 96 989.3
20260508031543 11 0 0.0 0.0 0.00 1.37 1.35 96 989.5
20260508030040 11 0 0.0 0.0 0.00 1.37 1.35 96 989.5
20260508024535 11 0 0.0 0.0 0.00 1.40 1.35 96 989.1
20260508021531 11 0 0.0 0.0 0.00 1.40 1.35 96 988.9
20260508020030 11 0 0.0 0.0 0.00 1.40 1.35 96 988.9
20260508014529 11 0 0.0 0.0 0.00 1.40 1.35 96 988.5
20260508013024 11 0 0.0 0.0 0.00 1.40 1.35 96 988.2
20260508011522 12 0 0.0 0.0 0.00 1.40 1.35 96 988.1
20260508010020 12 0 0.0 0.0 0.00 1.40 1.35 96 988.1
20260508004519 12 0 0.0 0.0 0.00 1.40 1.35 96 988.0
20260508003018 12 0 0.0 0.0 0.00 1.40 1.35 96 987.9
20260508001516 12 0 0.0 0.0 0.00 1.40 1.35 96 987.7
20260508000015 12 0 0.0 0.0 0.00 1.40 1.35 96 987.6
20260507234514 12 0 0.0 0.0 0.00 1.40 1.35 96 987.2
20260507231513 12 0 0.0 0.0 0.00 1.40 1.35 96 986.8
20260507230010 12 0 0.0 0.0 0.00 1.40 1.35 96 986.9
20260507224508 13 0 0.0 0.0 0.00 1.40 1.35 96 986.6
20260507223006 13 0 0.0 0.0 0.00 1.40 1.35 96 986.4
20260507214501 13 0 0.0 0.0 0.00 1.40 1.35 96 986.6
20260507213000 13 0 0.0 0.0 0.00 1.40 1.35 96 986.6
20260507211500 13 0 0.0 0.0 0.00 1.40 1.35 96 986.7
20260507205956 13 0 0.0 0.0 0.00 1.40 1.35 95 986.3
20260507204455 13 0 0.0 0.0 0.00 1.40 1.35 96 986.3
20260507202955 13 0 0.0 0.0 0.00 1.40 1.35 96 986.1
20260507201456 13 0 0.0 0.0 0.03 1.40 1.35 95 986.2
20260507195955 13 0 0.0 0.0 0.05 1.40 1.35 96 986.1
20260507194450 13 0 0.0 0.0 0.10 1.40 1.35 95 986.3
20260507192950 13 0 0.0 0.0 0.13 1.40 1.35 95 986.2
20260507191450 13 0 0.0 0.0 0.15 1.37 1.32 95 986.4
20260507185947 13 0 0.0 0.0 0.18 1.35 1.30 95 986.3
20260507184445 13 0 0.0 0.0 0.15 1.30 1.24 96 986.1
20260507182944 13 0 0.0 0.0 0.18 1.27 1.22 95 986.3
20260507181442 13 0 0.0 0.0 0.20 1.22 1.17 95 986.2
20260507174439 13 0 0.0 0.0 0.20 1.14 1.09 96 986.0
20260507171435 13 0 0.0 0.0 0.15 1.02 0.97 96 985.8
20260507165934 14 0 0.0 0.0 0.15 0.99 0.94 95 985.7
20260507164434 14 0 0.0 0.0 0.13 0.94 0.91 95 985.6
20260507161429 17 0 0.0 0.0 0.10 0.86 0.81 95 986.0
20260507155925 18 0 0.0 0.0 0.10 0.84 0.79 96 986.4
20260507154425 18 0 0.0 0.0 0.10 0.81 0.76 96 986.5
20260507152923 18 0 0.0 0.0 0.10 0.79 0.74 96 985.9
20260507151422 18 0 0.0 0.0 0.10 0.76 0.71 96 985.8
20260507145922 18 0 0.0 0.0 0.10 0.74 0.69 96 986.1
20260507144421 18 0 0.0 0.0 0.10 0.71 0.66 96 985.8
20260507142919 18 0 0.0 0.0 0.13 0.69 0.64 96 985.8
20260507141417 18 0 0.0 0.0 0.13 0.66 0.61 96 985.6
20260507134411 18 0 0.0 0.0 0.13 0.61 0.56 95 986.3
20260507131406 18 0 0.0 0.0 0.10 0.53 0.48 95 986.8
20260507125907 18 0 0.0 0.0 0.08 0.51 0.46 95 986.4
20260507121405 18 0 0.0 0.0 0.08 0.43 0.38 95 986.4
20260507115904 18 0 0.0 0.0 0.10 0.43 0.38 95 986.3
20260507114401 17 0 0.0 0.0 0.10 0.41 0.36 95 986.4
20260507112856 17 0 0.0 0.0 0.08 0.38 0.33 95 986.8
20260507111356 17 0 0.0 0.0 0.08 0.36 0.30 95 986.7
20260507105856 17 0 0.0 0.0 0.08 0.33 0.28 95 986.6
20260507104356 17 0 0.0 0.0 0.05 0.30 0.25 95 986.4
20260507102854 17 0 0.0 0.0 0.08 0.30 0.25 95 986.3
20260507101355 17 0 0.0 0.0 0.05 0.28 0.23 95 986.5
20260507095854 17 0 0.0 0.0 0.03 0.25 0.20 95 986.1
20260507094354 17 0 0.0 0.0 0.05 0.25 0.20 95 986.5
20260507092852 17 0 0.0 0.0 0.03 0.23 0.18 95 986.4
20260507091352 18 0 0.0 0.0 0.03 0.23 0.18 95 986.1
20260507085852 18 0 0.0 0.0 0.03 0.23 0.18 95 986.3
20260507084350 18 0 0.0 0.0 0.03 0.20 0.15 95 986.6
20260507082848 18 0 0.0 0.0 0.03 0.20 0.15 95 986.7
20260507081347 18 0 0.0 0.0 0.03 0.20 0.15 95 986.7
20260507075848 18 0 0.0 0.0 0.03 0.20 0.15 95 986.7
20260507074346 18 0 0.0 0.0 0.00 0.18 0.13 95 987.0
20260507072843 18 0 0.0 0.0 0.03 0.18 0.13 95 986.9
20260507071344 18 0 0.0 0.0 0.03 0.18 0.13 95 987.1
20260507065844 18 0 0.0 0.0 0.03 0.18 0.13 95 987.2
20260507064342 18 0 0.0 0.0 0.03 0.18 0.13 95 987.4
20260507062841 18 0 0.0 0.0 0.00 0.15 0.10 95 988.3
20260507061339 18 0 0.0 0.0 0.03 0.15 0.10 95 988.2
20260507055839 18 0 0.0 0.0 0.03 0.15 0.10 95 987.9
20260507054339 18 0 0.0 0.0 0.05 0.15 0.10 95 987.9
20260507051340 18 0 0.0 0.0 0.05 0.13 0.08 95 988.3